x

8447387 - Borden Flats Light At Fall River, Ma (bltm3) Weather Station

2:30 - Sat 29th Apr 2017 All times are EDT. -4 hours from GMT.

  • Wind
    8mph, 9mph gusts
  • Ar Temp 56°f
  • Sea Pressure 1015.5mb
  • 8447387 - Borden Flats Light At Fall River, Ma
  • 8447387 - Borden Flats Light At Fall River, Ma

More Historic Weather Station data

Upgrade to MSW Pro to gain access to the past 30 days of data for over 8000 Wavebouys and Weather Stations around the globe.

Join Pro

Comparision Forecast

View Surf forecast
   
Sáb 04/29 2:30 8 9 mph 1015.5mb 56f
2:24 5 6 mph 1015.5mb 57f
2:18 3 5 mph 1015.3mb 57f
2:12 2 5 mph 1015.4mb 57f
2:06 3 6 mph 1015.5mb 57f
2:00 5 6 mph 1015.7mb 57f
1:54 5 6 mph 1015.7mb 58f
1:48 7 9 mph 1015.7mb -
1:42 7 9 mph 1015.7mb -
1:36 7 8 mph 1015.7mb -
1:30 6 9 mph 1015.7mb 60f
1:24 7 9 mph 1015.7mb 61f
1:18 6 8 mph 1015.7mb 61f
1:12 7 10 mph 1015.8mb 61f
1:06 7 9 mph 1015.8mb 61f
1:00 8 10 mph 1015.7mb 62f
12:54 9 11 mph 1015.7mb 61f
12:48 9 11 mph 1015.7mb 60f
12:42 9 11 mph 1015.8mb 60f
12:36 7 8 mph 1015.8mb 59f
12:30 6 7 mph 1015.8mb 59f
12:24 6 7 mph 1015.9mb 59f
12:18 6 7 mph 1016mb 60f
12:12 6 8 mph 1015.9mb 60f
12:06 6 9 mph 1015.7mb 61f
12:00 9 11 mph 1015.7mb 63f
Sex 04/28 11:54 10 11 mph 1015.6mb 64f
11:48 8 11 mph 1015.4mb 63f
11:42 8 10 mph 1015.5mb 63f
11:36 8 11 mph 1015.5mb 62f
11:30 7 9 mph 1015.5mb 62f
11:24 9 10 mph 1015.5mb 61f
11:18 9 10 mph 1015.7mb 62f
11:12 9 11 mph 1015.7mb 61f
11:06 10 11 mph 1015.8mb 60f
11:00 8 10 mph 1015.8mb 59f
10:54 10 11 mph 1015.9mb 57f
10:48 9 10 mph 1015.9mb 58f
10:42 8 9 mph 1015.8mb 58f
10:36 8 9 mph 1015.9mb 58f
10:30 7 9 mph 1016mb 58f
10:24 8
mph
1016.1mb 58f
10:18 8 9 mph 1016.2mb 59f
10:12 7 8 mph 1016mb 59f
10:06 7 8 mph 1016mb 59f
10:00 8 9 mph 1016mb 58f
9:54 8 9 mph 1016mb 59f
9:48 8 10 mph 1016.1mb 59f
9:42 9 11 mph 1016.1mb 60f
9:36 8 9 mph 1015.9mb 61f
9:30 8 10 mph 1015.7mb 63f
9:24 10 13 mph 1015.7mb 63f
9:18 8 11 mph 1015.6mb 64f
9:12 8 10 mph 1015.6mb 63f
9:06 10 13 mph 1015.6mb 64f
9:00 7 13 mph 1015.4mb 64f
8:48 9 10 mph 1015.1mb 65f
8:42 9 10 mph 1015.1mb 64f
8:36 9 13 mph 1015mb 66f
8:30 11 15 mph 1014.8mb 66f
8:24 11 15 mph 1014.8mb 67f
8:18 9 15 mph 1014.7mb 66f
8:12 10 13 mph 1014.4mb 67f
8:06 10 14 mph 1014.2mb 67f
8:00 13 15 mph 1014.2mb 66f
7:48 10 15 mph 1014.1mb 68f
7:42 10 14 mph 1014mb 68f
7:36 11 15 mph 1013.7mb 68f
7:30 13 16 mph 1013.8mb 68f
7:24 14 18 mph 1014mb 68f
7:18 14 17 mph 1013.8mb 69f
7:12 13 16 mph 1013.7mb 69f
7:06 11 15 mph 1013.6mb 70f
7:00 14 18 mph 1013.5mb 69f
6:54 15 17 mph 1013.5mb 69f
6:48 14 17 mph 1013.5mb 70f
6:42 14 17 mph 1013.5mb 70f
6:36 14 17 mph 1013.7mb 70f
6:30 13 17 mph 1013.7mb 70f
6:24 14 17 mph 1013.7mb 71f
6:18 14 17 mph 1013.6mb 72f
6:12 13 16 mph 1013.6mb 73f
6:06 14 17 mph 1013.5mb -
6:00 13 16 mph 1013.5mb -
5:48 14 17 mph 1013.3mb -
5:42 15 18 mph 1013.3mb -
5:36 17 21 mph 1013.1mb -
5:30 15 17 mph 1013mb -
5:24 15 20 mph 1013mb -
5:18 13 16 mph 1012.9mb -
5:12 9 11 mph 1013mb 64f
5:06 13 20 mph 1012.9mb 69f
5:00 13 17 mph 1012.8mb 70f
4:54 13 15 mph 1012.9mb 71f
4:48 14 18 mph 1013mb 69f
4:42 14 17 mph 1012.9mb 70f
4:36 14 17 mph 1012.8mb 70f
4:30 14 16 mph 1013mb 70f
4:24 16 20 mph 1013mb 71f
4:18 14 16 mph 1013.1mb 70f
4:12 14 17 mph 1013.1mb 70f
4:06 14 18 mph 1013.2mb 70f
4:00 17 20 mph 1013.1mb 68f
3:54 18 20 mph 1013.1mb 65f
3:48 17 18 mph 1013.1mb 64f
3:42 17 18 mph 1013.1mb 63f
3:36 15 17 mph 1013.1mb 61f
3:30 14 15 mph 1013.2mb 60f
3:24 13 15 mph 1013.2mb 60f
3:18 13 14 mph 1013.1mb 60f
3:12 14 15 mph 1013mb 61f
3:06 15 16 mph 1013.2mb 61f
3:00 14 15 mph 1013.3mb 61f
2:54 11 14 mph 1013.5mb 61f
2:48 13 15 mph 1013.6mb 61f
2:42 11 13 mph 1013.6mb 62f
2:36 13 15 mph 1013.7mb 62f
2:30 10 14 mph 1013.8mb 62f
2:24 9 11 mph 1013.9mb 63f
2:18 13 15 mph 1013.9mb 62f
2:12 11 14 mph 1014mb 67f
2:06 11 14 mph 1014.1mb 62f
2:00 13 14 mph 1014mb 60f
1:54 14 15 mph 1014.1mb 60f
1:48 11 14 mph 1014.2mb 58f
1:42 9 11 mph 1014.1mb 58f
1:36 8 9 mph 1014mb 58f
1:30 8 11 mph 1014.1mb 58f
1:24 11 14 mph 1014.1mb 58f
1:18 9 11 mph 1014.1mb 58f
1:12 8 9 mph 1014mb 58f
1:06 8 9 mph 1014mb 57f
1:00 9 10 mph 1014mb 57f
12:54 9 10 mph 1013.9mb 57f
12:48 8 9 mph 1013.9mb 57f
12:42 7
mph
1014mb 58f
12:36 8 9 mph 1014.1mb 57f
12:30 8 9 mph 1014.1mb 57f
12:24 7 8 mph 1014.1mb 57f
12:18 8
mph
1014.4mb 56f
12:12 8
mph
1014.5mb 56f
12:06 9
mph
1014.4mb 56f
12:00 7 8 mph 1014.4mb 56f
11:54 7
mph
1014.4mb 56f
11:48 7 8 mph 1014.5mb 56f
11:42 8 9 mph 1014.6mb 56f
11:36 8 9 mph 1014.5mb 56f
11:30 10 11 mph 1014.5mb 55f
11:24 11 13 mph 1014.6mb 55f
11:18 13 14 mph 1014.6mb 56f
11:12 14
mph
1014.6mb 56f
11:06 13 14 mph 1014.4mb 55f
11:00 11 13 mph 1014.3mb 55f
10:54 11 13 mph 1014.1mb 55f
10:48 11 13 mph 1014.2mb 55f
10:42 11 13 mph 1014.1mb 55f
10:36 13
mph
1014mb 55f
10:30 10
mph
1013.8mb 55f
10:24 11 13 mph 1013.9mb 55f
10:18 13 14 mph 1014.1mb 55f
10:12 10
mph
1014mb 55f
10:06 10
mph
1013.9mb 55f
10:00 10
mph
1013.9mb 54f
9:54 8 10 mph 1013.9mb 55f
9:48 3 5 mph 1013.7mb 55f
9:42 3 5 mph 1013.8mb 54f
9:36 7 10 mph 1013.8mb 54f
9:30 11 14 mph 1014.1mb 54f
9:24 11 14 mph 1014.2mb 54f
9:18 8 9 mph 1013.9mb 55f
9:12 5 6 mph 1013.5mb 55f
9:06 3 6 mph 1013.1mb 54f
9:00 1 3 mph 1013.5mb 54f
8:54 3 7 mph 1013.6mb 54f
8:48 10 11 mph 1014.1mb 54f
8:42 10
mph
1014.2mb 54f
8:36 10 11 mph 1014.1mb 54f
8:30 8 10 mph 1014mb 54f
8:24 9 11 mph 1014.1mb 54f
8:18 6 8 mph 1013.9mb 55f
8:12 5 6 mph 1013.9mb 56f
8:06 6 8 mph 1013.9mb 56f
8:00 5 8 mph 1013.7mb 57f
7:30 6 8 mph 1013.6mb 57f
7:24 3 5 mph 1013.4mb 56f
7:18 6 9 mph 1013.7mb 55f
7:12 7 8 mph 1013.8mb 56f
7:06 6 8 mph 1013.6mb 56f
7:00 15 17 mph 1013.8mb 55f
6:54 8 10 mph 1013.5mb 55f
6:48 3 6 mph 1013.1mb 55f
6:42 5 7 mph 1013.1mb 58f
6:36 7 8 mph 1012.8mb 58f
6:30 7 9 mph 1013mb 58f
6:24 6 8 mph 1012.9mb 58f
6:18 6 9 mph 1013mb 58f
6:12 6 8 mph 1012.9mb 58f
6:06 6 8 mph 1012.6mb 58f
6:00 8 10 mph 1012.6mb 58f
5:54 7 9 mph 1012.6mb 58f
5:48 8 11 mph 1012.6mb 58f
5:42 6 9 mph 1012.7mb 58f
5:36 6 7 mph 1012.7mb 58f
5:30 5 7 mph 1012.6mb 58f
5:24 7 9 mph 1012.7mb 58f
5:18 6 8 mph 1012.6mb 57f
5:12 5 6 mph 1012.6mb 57f
5:06 5 7 mph 1012.5mb 57f
5:00 1 3 mph 1012.5mb 57f
4:54 3 6 mph 1012.5mb 57f
4:48 6 8 mph 1012.5mb 57f
4:42  -  2 mph 1012.7mb 57f
4:36 5 8 mph 1012.6mb 57f
4:30 6 9 mph 1012.6mb 57f
4:24 2 3 mph 1012.5mb 57f
4:18 1 5 mph 1012.6mb 57f
4:12 3 5 mph 1012.6mb 57f
4:06 6 8 mph 1012.8mb 57f
4:00 5 7 mph 1012.7mb 57f
3:54 5 7 mph 1012.8mb 57f
3:48 5 6 mph 1012.7mb 57f
3:42 3 6 mph 1012.7mb 57f
3:36 2 5 mph 1012.6mb 57f
3:30 2 5 mph 1012.5mb 57f
3:24 1 2 mph 1012.5mb 56f
3:18 2 3 mph 1012.6mb 56f
3:12 2 5 mph 1012.6mb 57f
3:06 3 6 mph 1012.5mb 57f
3:00 6 9 mph 1012.6mb 57f
2:54 6 7 mph 1012.7mb 58f
2:48 5 7 mph 1012.7mb 58f
2:42 3 6 mph 1012.8mb 57f
2:36 3 6 mph 1012.8mb 57f
2:30 3 6 mph 1012.8mb 57f
2:24 5 6 mph 1012.8mb 57f
2:18 5 6 mph 1012.9mb 57f
2:12 5 7 mph 1013mb 57f
2:06 5 8 mph 1013mb 56f
2:00 3 7 mph 1012.8mb 56f
1:54 7 10 mph 1012.9mb 56f
1:48 3 9 mph 1012.9mb 55f
1:42 5 7 mph 1013mb 55f
1:36 1 3 mph 1013mb 55f
1:30 5 8 mph 1013mb 55f
1:24 3 5 mph 1013.1mb 54f
1:18 3 6 mph 1013.2mb 54f
1:12 5 6 mph 1013.5mb 54f
1:06 5 8 mph 1013.4mb 56f
1:00 6 8 mph 1013.4mb 57f
12:54 5 9 mph 1013.4mb 57f
12:48 7 10 mph 1013.4mb 56f
12:42 6 8 mph 1013.4mb 56f
12:36 6 9 mph 1013.4mb 54f
12:30 7 9 mph 1013.4mb 55f
12:24 7 8 mph 1013.5mb 55f
12:18 6
mph
1013.5mb 54f
12:12 6 7 mph 1013.5mb 54f
12:06 7
mph
1013.5mb 53f
12:00 7
mph
1013.5mb 53f
Qui 04/27 11:54 7
mph
1013.6mb 53f
11:48 7 8 mph 1013.6mb 54f
11:42 5 6 mph 1013.3mb 54f
11:36 3 5 mph 1013.2mb 54f
11:30 3
mph
1013.2mb 53f
11:24 3 5 mph 1013.2mb 53f
11:18 5
mph
1013.3mb 53f
11:12 3 5 mph 1013.4mb 54f
11:06 6
mph
1013.5mb 54f
11:00 6
mph
1013.5mb 54f
10:54 6 7 mph 1013.5mb 54f
10:48 5 6 mph 1013.5mb 54f
10:42 6
mph
1013.5mb 54f
10:36 6 7 mph 1013.6mb 54f
10:30 7 8 mph 1013.7mb 54f
10:24 8
mph
1013.8mb 54f
10:18 7 8 mph 1013.7mb 56f
10:12 6 7 mph 1013.6mb 56f
10:06 6 7 mph 1013.6mb 56f
10:00 6 7 mph 1013.5mb 56f
9:54 7 9 mph 1013.6mb 56f
9:48 7 8 mph 1013.7mb 56f
9:42 6 8 mph 1013.7mb 56f
9:36 7 10 mph 1013.8mb 56f
9:30 8 11 mph 1013.8mb 56f
9:24 9 13 mph 1013.8mb 56f
9:18 11 18 mph 1013.8mb 56f
9:12 11 16 mph 1013.8mb 56f
9:06 10 13 mph 1013.7mb 57f
9:00 10 14 mph - 57f
8:48 10 14 mph 1013.6mb 57f
8:42 11 16 mph 1013.5mb 57f
8:36 10 14 mph 1013.3mb 58f
8:30 10 13 mph 1013.3mb 58f
8:24 10 13 mph 1013.2mb 58f
8:18 9 11 mph 1013.3mb 57f
8:12 9 11 mph 1013.2mb 58f
8:06 8 10 mph 1013mb 58f
8:00 8 10 mph 1012.8mb 58f
7:48 7 8 mph 1012.8mb 58f
7:42 11 14 mph 1012.7mb 58f
7:36 13 15 mph 1012.8mb 59f
7:30 15 18 mph 1012.5mb 59f
7:24 10 16 mph 1012.5mb 59f
7:18 6 8 mph 1012.4mb 57f
7:12 7 8 mph 1012.3mb 56f
7:06 7 9 mph 1012.3mb 58f
7:00 10 14 mph 1012.3mb 59f
6:48 7 10 mph 1012.2mb 59f
6:42 8 9 mph 1012.2mb 59f
6:36 10 13 mph 1012.3mb 59f
6:30 11 14 mph 1012.2mb 60f
6:24 13 15 mph 1012.2mb 60f
6:18 13 17 mph 1012.2mb 60f
6:12 13 17 mph 1012mb 60f
6:06 11 15 mph 1011.9mb 60f
6:00 14 16 mph 1011.8mb 58f
5:48 11 14 mph 1011.8mb 58f
5:42 15 17 mph 1011.8mb 58f
5:36 14 15 mph 1011.8mb 58f
5:30 15 16 mph 1011.8mb 59f
5:24 16 18 mph 1011.8mb 59f
5:18 14 16 mph 1011.9mb 57f
5:12 15 16 mph 1011.8mb 57f
5:06 15 16 mph 1011.9mb 57f
5:00 16
mph
1011.9mb 57f
4:54 14 15 mph 1011.9mb 57f
4:48 11 13 mph 1011.9mb 57f
4:42 13 14 mph 1011.9mb 57f
4:36 11
mph
1011.8mb 58f
4:30 10 11 mph 1011.8mb 58f
4:24 9
mph
1011.8mb 58f
4:18 8 9 mph 1011.9mb 57f
4:12 10 11 mph 1011.9mb 58f
4:06 13
mph
1012mb 58f
4:00 13 14 mph 1011.9mb 57f
3:54 14
mph
1011.9mb 58f
3:48 11 13 mph 1011.9mb 59f
3:42 14
mph
1012mb 58f
3:36 14 15 mph 1012mb 58f
3:30 13 14 mph 1012.1mb 58f
3:24 15
mph
1012.1mb 57f
3:18 16
mph
1012.2mb 57f
3:12 16
mph
1012.2mb 56f
3:06 15
mph
1012.2mb 56f
3:00 16
mph
1012.3mb 56f
2:54 17
mph
1012.3mb 56f
2:48 11 13 mph 1012.3mb 55f
2:42 14
mph
1012.3mb 55f
2:36 14 15 mph 1012.2mb 55f
2:30 11 13 mph 1012.1mb 55f
2:24 11 13 mph 1012.2mb 55f
2:18 11
mph
1012.3mb 55f
2:12 11
mph
1012.3mb 55f
2:06 10 11 mph 1012.4mb 55f
2:00 10 11 mph 1012.5mb 55f
1:54 10
mph
1012.5mb 55f
1:48 11 13 mph 1012.5mb 55f
1:42 13 14 mph 1012.4mb 55f
1:36 13 14 mph 1012.4mb 55f
1:30 13 14 mph 1012.3mb 55f
1:24 16 17 mph 1012.4mb 55f
1:18 14 15 mph 1012.4mb 57f
1:12 10 14 mph 1012.2mb 60f
1:06 9
mph
1012.1mb 60f
1:00 7 8 mph 1012mb 60f
12:48 7 8 mph 1012.1mb 60f
12:42 8
mph
1012.1mb 58f
12:36 8 9 mph 1012.1mb 58f
12:30 7 8 mph 1012.2mb 59f
12:24 7
mph
1012.2mb 59f
12:18 6 7 mph 1012.3mb 58f
12:12 7 8 mph 1012.5mb 58f
12:06 6
mph
1012.5mb 58f
12:00 5
mph
1012.5mb 57f
11:54 3 5 mph 1012.4mb 58f
11:48  -  1 mph 1012.4mb 59f
11:42 1 2 mph 1012.4mb 58f
11:36  -  1 mph 1012.4mb 58f
11:30  -  mph 1012.5mb 58f
11:24  -  1 mph 1012.5mb 58f
11:18 1
mph
1012.6mb 57f
11:12 2
mph
1012.6mb 57f
11:06 2
mph
1012.6mb 56f
11:00 2
mph
1012.6mb 56f
10:54 3
mph
1012.6mb 56f
10:48 2 3 mph 1012.6mb 55f
10:42  -  mph 1012.5mb 55f
10:36  -  mph 1012.5mb 55f
10:30  -  1 mph 1012.4mb 55f
10:24 2 3 mph 1012.5mb 54f
10:18 3 5 mph 1012.6mb 54f
10:12 2 3 mph 1012.5mb 54f
10:06 3 5 mph 1012.5mb 54f
10:00 3
mph
1012.5mb 54f
9:54 1
mph
1012.4mb 54f
9:48 2 3 mph 1012.5mb 54f
9:42  -  1 mph 1012.5mb 54f
9:36 2 3 mph 1012.5mb 53f
9:30 3 5 mph 1012.5mb 53f
9:24 3 5 mph 1012.4mb 53f
9:18 2
mph
1012.4mb 54f
9:12  -  1 mph 1012.4mb 54f
9:06  -  1 mph 1012.4mb 54f
9:00  -  mph 1012.5mb 54f
8:54  -  1 mph 1012.6mb 54f
8:48 2
mph
1012.6mb 54f
8:42 2
mph
1012.5mb 53f
8:36  -  2 mph 1012.5mb 53f
8:30  -  mph 1012.4mb 54f
8:24 1 2 mph 1012.3mb 54f
8:18 3
mph
1012.2mb 54f
8:12 3
mph
1012.1mb 54f
8:06 5
mph
1011.9mb 54f
8:00 3 5 mph 1011.9mb 54f
7:48 5
mph
1011.8mb 54f
7:42 3
mph
1011.8mb 54f
7:36 5
mph
1011.8mb 54f
7:30 3 6 mph 1011.8mb 54f
7:24 5 6 mph 1011.6mb 54f
7:18 5 6 mph 1011.6mb 54f
7:12 6 7 mph 1011.4mb 54f
7:06 5 6 mph 1011.3mb 54f
7:00 3
mph
1011.2mb 54f
6:54 5
mph
1011.2mb 54f
6:48 3 5 mph 1011.1mb 54f
6:42 2 3 mph 1011.2mb 54f
6:36 5
mph
1011.1mb 54f
6:30 3 5 mph 1011.1mb 54f
6:24 6 7 mph 1011.2mb 54f
6:18 6 7 mph 1011.1mb 54f
6:12 5 6 mph 1011.1mb 54f
6:06 5 6 mph 1011.1mb 54f
6:00 3 5 mph 1010.9mb 54f
5:54 3 5 mph 1010.7mb 54f
5:48 5 6 mph 1010.6mb 54f
5:42 5
mph
1010.6mb 54f
5:36 5 6 mph 1010.6mb 54f
5:30 6 7 mph 1010.4mb 54f
5:24 5 6 mph 1010.4mb 54f
5:18 5 6 mph 1010.3mb 54f
5:12 6 7 mph 1010.2mb 54f
5:06 6 7 mph 1010mb 54f
5:00 7 8 mph 1009.9mb 54f
4:54 7 8 mph 1010mb 54f
4:48 7 8 mph 1010mb 54f
4:42 7 8 mph 1009.8mb 54f
4:36 10 11 mph 1009.5mb 54f
4:30 11 13 mph 1009.4mb 54f
4:24 11 13 mph 1009.4mb 54f
4:18 8 9 mph 1009.5mb 54f
4:12 7 9 mph 1009.5mb 55f
4:06 8 9 mph 1009.5mb 55f
4:00 7 8 mph 1009.5mb 54f
3:54 7 8 mph 1009.6mb 55f
3:48 6 7 mph 1009.6mb 55f
3:42 6 7 mph 1009.8mb 55f
3:36 5 6 mph 1009.7mb 55f
3:30 7 8 mph 1009.6mb 55f
3:24 6 8 mph 1009.7mb 55f
3:18 8 10 mph 1009.6mb 55f
3:12 8 10 mph 1009.6mb 55f
3:06 8 9 mph 1009.6mb 55f
3:00 7 8 mph 1009.6mb 55f
2:54 6 7 mph 1009.5mb 55f
2:48 6 7 mph 1009.5mb 55f
2:42 7 9 mph 1009.4mb 55f
2:36 8 9 mph 1009.3mb 55f
2:30 6 7 mph 1009.3mb 55f
2:24 7 9 mph 1009.4mb 56f
2:18 6 8 mph 1009.5mb 55f
2:12 5 6 mph 1009.5mb 55f
2:06 3
mph
1009.6mb 55f
2:00 3 5 mph 1009.6mb 55f
1:54 3 5 mph 1009.6mb 55f
1:48 3
mph
1009.5mb 55f
1:42 5 6 mph 1009.6mb 55f
1:36 5 6 mph 1009.6mb 55f
1:30 3 6 mph 1009.7mb 55f
1:24 7 8 mph 1009.5mb 55f
1:18 3 5 mph 1009.7mb 55f
1:12 3
mph
1009.7mb 55f
1:06 3 5 mph 1009.6mb 55f
1:00 3
mph
1009.6mb 55f
12:54 3 5 mph 1009.6mb 54f
12:48 3
mph
1009.6mb 54f
12:42  -  2 mph 1009.7mb 53f
12:36  -  2 mph 1009.6mb 53f
12:30 2
mph
1009.7mb 53f
12:24  -  mph 1009.7mb 53f
12:18  -  mph 1009.8mb 53f
12:12  -  1 mph 1009.8mb 54f
12:06 1
mph
1009.7mb 53f
12:00  -  mph 1009.7mb 53f
Qua 04/26 11:54  -  mph 1009.7mb 53f
11:48  -  mph 1009.8mb 53f
11:42  -  mph 1009.8mb 53f
11:36  -  1 mph 1009.7mb 53f
11:30 1 2 mph 1009.7mb 52f
11:24  -  1 mph 1009.5mb 53f
11:18 2
mph
1009.5mb 53f
11:12 2 3 mph 1009.5mb 53f
11:06 3 5 mph 1009.5mb 53f
11:00 5
mph
1009.6mb 54f
10:54 5
mph
1009.5mb 54f
10:48 3
mph
1009.5mb 55f
10:42 2 3 mph 1009.5mb 54f
10:36 2
mph
1009.6mb 55f
10:30 3 5 mph 1009.7mb 55f
10:24 6
mph
1009.6mb 54f
10:18 7 8 mph 1009.6mb 53f
10:12 6 7 mph 1009.5mb 53f
10:06 7 8 mph 1009.4mb 53f
10:00 7 8 mph 1009.3mb 53f
9:48 2 3 mph 1009.2mb 55f
9:42 2 3 mph 1009.1mb 55f
9:36 5 6 mph 1009mb 55f
9:30 7 9 mph 1008.9mb 55f
9:24 7 9 mph 1008.8mb 55f
9:18 2 5 mph 1008.7mb 56f
9:12 7 10 mph 1008.5mb 56f
9:06 7 11 mph 1008.4mb 56f
9:00 9 14 mph 1008.1mb 56f
8:48 10 15 mph 1007.7mb 56f
8:42 13 16 mph 1007.6mb 56f
8:36 10 14 mph 1007.7mb 57f
8:30 9 13 mph 1007.7mb 57f
8:24 11 13 mph 1007.9mb 57f
8:18 8 9 mph 1007.8mb 57f
8:12 7 8 mph 1008.1mb 57f
8:06 5 7 mph 1008.3mb 58f
8:00 3
mph
1008.3mb 58f
7:48 2 5 mph 1008.2mb 58f
7:42 3 6 mph 1008.2mb 58f
7:36 3 6 mph 1008.1mb 58f
7:30 5 6 mph 1008mb 58f
7:24 6 8 mph 1008mb 58f
7:18 5 6 mph 1007.9mb 58f
7:12 3 5 mph 1007.8mb 58f
7:06 5 6 mph 1007.7mb 58f
7:00 8 9 mph 1007.6mb 58f
6:54 9 11 mph 1007.4mb 58f
6:48 8 9 mph 1007.6mb 59f
6:42 8 10 mph 1007.6mb 59f
6:36 7 8 mph 1007.7mb 59f
6:30 7 9 mph 1007.6mb 59f
6:24 7 9 mph 1007.5mb 59f
6:18 7 9 mph 1007.4mb 59f
6:12 7 9 mph 1007.4mb 60f
6:06 6 7 mph 1007.2mb 60f
6:00 7 8 mph 1007.2mb 60f
5:48 7 9 mph 1007.3mb 60f
5:42 6 8 mph 1007.2mb 59f
5:36 6 9 mph 1007.2mb 60f
5:30 6 7 mph 1007.3mb 59f
5:24 7 8 mph 1007.3mb 58f
5:18 5 6 mph 1007.3mb 58f
5:12 5 7 mph 1007.4mb 58f
5:06 6 7 mph 1007.4mb 58f
5:00 2 3 mph 1007.4mb 59f
4:54  -  2 mph 1007.5mb 59f
4:48 1 3 mph 1007.4mb 58f
4:42  -  2 mph 1007.7mb 58f
4:36 1 2 mph 1007.8mb 57f
4:30  -  1 mph 1007.7mb 57f
4:24  -  2 mph 1007.6mb 58f
4:18 1 2 mph 1007.6mb 58f
4:12 2
mph
1007.7mb 58f
4:06 2
mph
1007.8mb 58f
4:00 2
mph
1007.8mb 58f
3:54 2
mph
1007.8mb 58f
3:48 2 3 mph 1007.8mb 58f
3:42 1 2 mph 1007.8mb 58f
3:36 2 3 mph 1007.8mb 58f
3:30 3 6 mph 1007.9mb 57f
3:24 5 6 mph 1008mb 57f
3:18  -  2 mph 1008mb 59f
3:12 6 8 mph 1008mb 59f
3:06 7 13 mph 1008.1mb 59f
3:00 7 8 mph 1008.1mb 59f
2:54 7 10 mph 1008.1mb 59f
2:48 7 10 mph 1008.1mb 59f
2:42 11 16 mph 1008.1mb 59f
2:36 10 15 mph 1008.2mb 59f
2:30 9 13 mph 1008.2mb 59f
2:24 15 20 mph 1008.2mb 59f
2:18 11 17 mph 1008.3mb 59f
2:12 11 16 mph 1008.4mb 59f
2:06 11 18 mph 1008.5mb 59f
2:00 14 16 mph 1008.6mb 59f
1:54 10 13 mph 1008.6mb 59f
1:48 13 17 mph 1008.5mb 59f
1:42 11 18 mph 1008.5mb 58f
1:36 13 17 mph 1008.6mb 59f
1:30 11 18 mph 1008.6mb 59f
1:24 11 20 mph 1008.6mb 59f
1:18 14 18 mph 1008.6mb 59f
1:12 14 21 mph 1008.6mb 59f
1:06 15 20 mph 1008.6mb 59f
1:00 15 21 mph 1008.7mb 59f
12:54 13 16 mph 1008.8mb 59f
12:48 13 16 mph 1008.8mb 59f
12:42 13 15 mph 1008.9mb 59f
12:36 10 18 mph 1008.9mb 59f
12:30 13 16 mph 1008.9mb 59f
12:24 17 26 mph 1008.8mb 59f
12:18 15 18 mph 1008.8mb 59f
12:12 17 23 mph 1008.7mb 60f
12:06 16 23 mph 1008.7mb 60f
12:00 18 25 mph 1008.8mb 60f
11:54 15 22 mph 1008.9mb 60f
11:48 15 21 mph 1008.9mb 60f
11:42 16 22 mph 1008.9mb 60f
11:36 16 22 mph 1009mb 60f
11:30 13 17 mph 1009.1mb 60f
11:24 15 24 mph 1009mb 60f
11:18 11 20 mph 1009.1mb 60f
11:12 13 18 mph 1009.2mb 60f
11:06 13 16 mph 1009.2mb 60f
11:00 14 23 mph 1009.2mb 60f
10:54 13 18 mph 1009.1mb 60f
10:48 14 18 mph 1009.1mb 60f
10:42 11 15 mph 1009.1mb 60f
10:36 11 14 mph 1009mb 59f
10:30 11 15 mph 1009mb 59f
10:24 11 16 mph 1009mb 59f
10:18 11 16 mph 1009mb 59f
10:12 10 15 mph 1009mb 59f
10:06 15 21 mph 1008.9mb 59f
10:00 14 18 mph 1008.9mb 59f
9:54 15 23 mph 1008.9mb 59f
9:48 14 20 mph 1009mb 59f
9:42 15 21 mph 1009mb 59f
9:36 14 18 mph 1009.1mb 58f
9:30 13 16 mph 1009mb 58f
9:24 13 17 mph 1009mb 58f
9:18 15 22 mph 1009mb 59f
9:12 14 21 mph 1009.1mb 58f
9:06 16 22 mph 1009.1mb 58f
9:00 14 21 mph 1009.1mb 58f
8:48 13 16 mph 1009.2mb 58f
8:42 15 22 mph 1009.3mb 58f
8:36 15 20 mph 1009.4mb 59f
8:30 11 15 mph 1009.3mb 59f
8:24 14 18 mph 1009.3mb 59f
8:18 15 21 mph 1009.2mb 59f
8:12 14 17 mph 1009.2mb 60f
8:06 14 20 mph 1009.2mb 60f
8:00 15 22 mph 1009.2mb 60f
7:54 16 23 mph 1009.2mb 59f
7:48 18 26 mph 1009.1mb 59f
7:42 21 26 mph 1009.1mb 59f
7:36 21 26 mph 1008.8mb 59f
7:30 20 25 mph 1008.9mb 59f
7:24 18 29 mph 1009mb 59f
7:18 13 17 mph 1009.1mb 58f
7:12 14 18 mph 1009.1mb 58f
7:06 14 21 mph 1009.1mb 58f
7:00 14 21 mph 1009.2mb 58f
6:54 14 20 mph 1009.1mb 58f
6:48 15 22 mph 1009mb 58f
6:42 15 21 mph 1009mb 58f
6:36 13 21 mph 1009mb 58f
6:30 13 17 mph 1009mb 58f
6:24 14 21 mph 1009.1mb 58f
6:18 14 18 mph 1009.2mb 58f
6:12 14 18 mph 1009.2mb 58f
6:06 11 17 mph 1009.3mb 58f
6:00 14 21 mph 1009.4mb 58f
5:54 15 20 mph 1009.4mb 58f
5:48 16 22 mph 1009.5mb 58f
5:42 17 24 mph 1009.5mb 57f
5:36 17 23 mph 1009.5mb 58f
5:30 17 25 mph 1009.6mb 58f
5:24 17 23 mph 1009.6mb 58f
5:18 17 26 mph 1009.6mb 58f
5:12 17 24 mph 1009.5mb 58f
5:06 18 26 mph 1009.5mb 58f
5:00 13 18 mph 1009.6mb 58f
4:54 15 21 mph 1009.6mb 58f
4:48 17 21 mph 1009.6mb 58f
4:42 16 23 mph 1009.6mb 58f
4:36 13 16 mph 1009.7mb 58f
4:30 14 20 mph 1009.9mb 58f
4:24 9 15 mph 1009.9mb 58f
4:18 14 18 mph 1009.8mb 58f
4:12 11 15 mph 1010mb 58f
4:06 11 18 mph 1010.1mb 58f
4:00 15 21 mph 1010.3mb 58f
3:54 13 17 mph 1010.6mb 58f
3:48 13 18 mph 1010.5mb 58f
3:42 9 13 mph 1010.7mb 58f
3:36 8 14 mph 1010.7mb 57f
3:30 6 11 mph 1010.8mb 57f
3:24 9 14 mph 1010.6mb 56f
3:18 10 14 mph 1010.9mb 55f
3:12 8 9 mph 1011.2mb 55f
3:06 9 11 mph 1011.3mb 55f
3:00 10 11 mph 1011.5mb 55f
2:54 10 13 mph 1011.5mb 55f
2:48 10 13 mph 1011.7mb 55f
2:42 10 11 mph 1011.9mb 54f
2:36 10 11 mph 1012.1mb 54f
2:30 9 11 mph 1012.3mb 55f
2:24 7 9 mph 1012.5mb 55f
2:18 7 9 mph 1012.6mb 55f
2:12 8 9 mph 1012.7mb 54f
2:06 9 11 mph 1012.7mb 54f
2:00 9 11 mph 1012.8mb 55f
1:54 8 10 mph 1013.1mb 55f
1:48 9 11 mph 1013.1mb -
1:42 11 14 mph 1013.1mb -
1:36 13 15 mph 1013.1mb -
1:30 15 16 mph 1013.1mb 54f
1:24 14 15 mph 1013.3mb 53f
1:18 14 15 mph 1013.5mb 53f
1:12 11 13 mph 1013.7mb 53f
1:06 11 13 mph 1013.8mb 54f
1:00 10 13 mph 1013.9mb 54f
12:54 9 11 mph 1014mb 55f
12:48 8 10 mph 1014.2mb 55f
12:42 8 10 mph 1014.3mb 55f
12:36 7 8 mph 1014.5mb 55f
12:30 8 10 mph 1014.5mb 55f
12:24 6 10 mph 1014.7mb 55f
12:18 6 8 mph 1014.8mb 55f
12:12 8 11 mph 1014.8mb 55f
12:06 7 9 mph 1014.9mb 55f
12:00 8 11 mph 1015mb 55f
Ter 04/25 11:54 8 13 mph 1015.2mb 55f
11:48 8 10 mph 1015.2mb 55f
11:42 8 14 mph 1015.2mb 55f
11:36 10 13 mph 1014.9mb 54f
11:30 11 14 mph 1014.8mb 55f
11:24 10 14 mph 1015.1mb 54f
11:18 9 11 mph 1015.4mb 55f
11:12 8 14 mph 1015.4mb 55f
11:06 8 10 mph 1015.4mb 54f
11:00 9 13 mph 1015.5mb 55f
10:54 9 13 mph 1015.6mb 54f
10:48 11 16 mph 1015.6mb 55f
10:42 9 14 mph 1015.8mb 55f
10:36 10 15 mph 1015.8mb 55f
10:30 9 13 mph 1016mb 55f
10:24 10 15 mph 1016.1mb 55f
10:18 10 16 mph 1016mb 55f
10:12 10 14 mph 1016.1mb 54f
10:06 11 15 mph 1016.2mb 55f
10:00 11 16 mph 1016.5mb 55f
9:48 13 18 mph 1016.5mb 54f
9:42 13 17 mph 1016.5mb 54f
9:36 14 21 mph 1016.6mb 54f
9:30 14 17 mph 1016.7mb 54f
9:24 14 23 mph 1016.7mb 54f
9:18 11 17 mph 1016.8mb 55f
9:12 13 17 mph 1016.9mb 55f
9:06 11 18 mph 1016.9mb 55f
9:00 14 21 mph 1016.8mb 55f
8:48 13 16 mph 1016.9mb 55f
8:42 15 22 mph 1016.9mb 55f
8:36 13 21 mph 1016.9mb 55f
8:30 11 21 mph 1016.9mb 55f
8:24 13 16 mph 1016.8mb 54f
8:18 14 20 mph 1016.8mb 55f
8:12 13 20 mph 1016.9mb 55f
8:06 17 24 mph 1016.8mb 55f
8:00 16 24 mph 1016.9mb 55f
7:48 14 20 mph 1017mb 54f
7:42 10 14 mph 1017.1mb 52f
7:36 10 13 mph 1017.1mb 51f
7:30 11 14 mph 1017.1mb 51f
7:24 11 13 mph 1017.2mb 51f
7:18 11 14 mph 1017.2mb 51f
7:12 13 14 mph 1017.2mb 51f
7:06 13 15 mph 1017.2mb 51f
7:00 13 14 mph 1017.3mb 51f
6:48 10 13 mph 1017.9mb 51f
6:42 10 13 mph 1017.9mb 50f
6:36 10 11 mph 1018mb 50f
6:30 11 14 mph 1018mb 50f
6:24 13 17 mph 1018mb 50f
6:18 15 17 mph 1018mb 50f
6:12 14 16 mph 1018mb 50f
6:06 15 18 mph 1018mb 50f
6:00 15 17 mph 1018.1mb 50f
5:48 14 16 mph 1018.3mb 50f
5:42 14 16 mph 1018.3mb 50f
5:36 14 16 mph 1018.4mb 50f
5:30 14 17 mph 1018.5mb 50f
5:24 15 17 mph 1018.5mb 50f
5:18 15 17 mph 1018.6mb 50f
5:12 16 18 mph 1018.7mb 50f
5:06 16 20 mph 1018.7mb 50f
5:00 16 18 mph 1018.8mb 50f
4:54 17 21 mph 1018.8mb 49f
4:48 18 21 mph 1018.8mb 49f
4:42 15 18 mph 1019.1mb 50f
4:36 16 20 mph 1019.2mb 50f
4:30 14 17 mph 1019.2mb 50f
4:24 16 18 mph 1019.4mb 50f
4:18 17 21 mph 1019.4mb 50f
4:12 14 17 mph 1019.7mb 50f
4:06 15 21 mph 1019.7mb 50f
4:00 14 16 mph 1019.7mb 50f
3:54 16 20 mph 1019.8mb 49f
3:48 18 22 mph 1019.5mb 49f
3:42 17 21 mph 1019.6mb 49f
3:36 20 23 mph 1019.6mb 49f
3:30 21 24 mph 1019.6mb 49f
3:24 17 23 mph 1019.9mb 49f
3:18 16 20 mph 1020.1mb 49f
3:12 18 23 mph 1020.1mb 49f
3:06 16 21 mph 1020.3mb 49f
3:00 18 23 mph 1020.4mb 49f
2:54 17 21 mph 1020.5mb 49f
2:48 18 22 mph 1020.6mb 49f
2:42 16 20 mph 1020.9mb 49f
2:36 15 20 mph 1020.9mb 49f
2:30 17 20 mph 1020.8mb 49f
2:24 18 22 mph 1020.7mb 49f
2:18 16 21 mph 1020.9mb 49f
2:12 21 24 mph 1020.7mb 49f
2:06 21 25 mph 1020.8mb 49f
2:00 21 25 mph 1020.6mb 49f
1:54 22 26 mph 1020.7mb 49f
1:48 21 24 mph 1020.7mb 49f
1:42 21 23 mph 1020.8mb 49f
1:36 21 24 mph 1020.7mb 49f
1:30 22 25 mph 1020.7mb 49f
1:24 21 25 mph 1021.1mb 49f
1:18 21 26 mph 1021.2mb 49f
1:12 18 21 mph 1021.3mb 49f
1:06 17 21 mph 1021.5mb 49f
1:00 18 22 mph 1021.3mb 49f
12:54 21 23 mph 1021mb 49f
12:48 18 23 mph 1021.4mb 50f
12:42 9 11 mph 1022.2mb 50f
12:36 11 16 mph 1022mb 50f
12:30 14 17 mph 1021.8mb 51f
12:24 18 21 mph 1021.3mb 51f
12:18 18 24 mph 1021.3mb 51f
12:12 20 23 mph 1021.3mb 51f
12:06 20 23 mph 1021.3mb 51f
12:00 17 24 mph 1021.5mb 51f
11:54 18 23 mph 1021.5mb 51f
11:48 21 23 mph 1021.6mb 51f
11:42 17 21 mph 1021.7mb 51f
11:36 18 21 mph 1021.9mb 51f
11:30 16 17 mph 1022mb 51f
11:24 17 20 mph 1022mb 51f
11:18 17 21 mph 1021.9mb 51f
11:12 15 18 mph 1022.1mb 51f
11:06 15 21 mph 1022.2mb 51f
11:00 14 17 mph 1022.3mb 51f
10:54 16 20 mph 1022.3mb 51f
10:48 15 21 mph 1022.3mb 51f
10:42 15 20 mph 1022.2mb 51f
10:36 15 20 mph 1022.3mb 51f
10:30 17 22 mph 1022.2mb 51f
10:24 17 22 mph 1022.2mb 51f
10:18 14 20 mph 1022.3mb 51f
10:12 17 23 mph 1022.2mb 51f
10:06 15 18 mph 1022.4mb 51f
10:00 13 16 mph 1022.5mb 51f
9:54 14 15 mph 1022.4mb 51f
9:48 14 17 mph 1022.3mb 50f
9:42 16 18 mph 1022.1mb 50f
9:36 16 20 mph 1022.1mb 51f
9:30 16 18 mph 1022.2mb 51f
9:24 16 20 mph 1022.2mb 51f
9:18 16 20 mph 1022.2mb 51f
9:12 16 21 mph 1022.2mb 51f
9:06 16 20 mph 1022.2mb 51f
9:00 14 18 mph 1022.3mb 51f
8:54 13 16 mph 1022.3mb 51f
8:48 17 20 mph 1022.2mb 51f
8:42 16 18 mph 1022.2mb 51f
8:36 15 18 mph 1022.3mb 51f
8:30 14 20 mph 1022.4mb 51f
8:24 10 13 mph 1022.6mb 50f
8:18 11 15 mph 1022.5mb 50f
8:12 13 17 mph 1022.3mb 50f
8:06 11 14 mph 1022.3mb 50f
8:00 14 18 mph 1022.2mb 50f
7:54 13 17 mph 1022.2mb 50f
7:48 14 18 mph 1022.1mb 50f
7:42 14 17 mph 1022mb 50f
7:36 13 16 mph 1021.9mb 50f